Probability
0 0 0 0 0 0 0 0 0 0 0 0 0 0 0 0 0 0 0 0 0 0 0 0 0 0 0 0 0 0 0 0 0 0 0 0 0 0 0 0 0 0 0 0
0 0 0 0 0 0 0 0 0 0 0 0 0 0 0 0 0 0 0 0 0 0 0 0 0 0 0 0 0 0 0 0 0 0 0 0 0 0 0 0 0 0 0 0
0 0 0 0 0 0 0 0 0 0 0 0 0 0 0 0 0 0 0 0 0 0 0 0 0 0 0 0 0 0 0 0 0 0 0 0 0 0 0 0 0 0 0 0
0 0 0 0 0 0 0 0 0 0 0 0 0 0 0 0 0 0 0 0 0 0 0 0 0 0 0 0 0 0 0 0 0 0 0 0 0 0 0 0 0 0 0 0
0 0 0 0 0 0 0 0 0 0 0 0 0 0 0 0 0 0 0 0 0 0 0 0 0 0 0 0 0 0 0 0 0 0 0 0 0 0 0 0 0 0 0 0
0 0 0 0 0 0 0 0 0 0 0 0 0 0 0 0 0 0 0 0 0 0 0 0 0 0 0 0 0 0 0 0 0 0 0 0 0 0 0 0 0 0 0 0
0 0 0 0 0 0 0 0 0 0 0 0 0 0 0 0 0 0 0 0 0 0 0 0 0 0 0 0 0 0 0 0 0 0 0 0 0 0 0 0 0 0 0 0
0 0 0 0 0 0 0 0 0 0 0 0 0 0 0 0 0 0 0 0 0 0 0 0 0 0 0 0 0 0 0 0 0 0 0 0 0 0 0 0 0 0 0 0
0 0 0 0 0 0 0 0 0 0 0 0 0 0 0 0 0 0 0 0 0 0 0 0 0 0 0 0 0 0 0 0 0 0 0 0 0 0 0 0 0 0 0 0
0 0 0 0 0 0 0 0 0 0 0 0 0 0 0 0 0 0 0 0 0 0 0 0 0 0 0 0 0 0 0 0 0 0 0 0 0 0 0 0 0 0 0 0
0 0 0 0 0 0 0 0 0 0 0 0 0 0 0 0 0 0 0 0 0 0 0 0 0 0 0 0 0 0 0 0 0 0 0 0 0 0 0 0 0 0 0 0
0 0 0 0 0 0 0 0 0 0 0 0 0 0 0 0 0 0 0 0 0 0 0 0 0 0 0 0 0 0 0 0 0 0 0 0 0 0 0 0 0 0 0 0
0 0 0 0 0 0 0 0 0 0 0 0 0 0 0 0 0 0 0 0 0 0 0 0 0 0 0 0 0 0 0 0 0 0 0 0 0 0 0 0 0 0 0 0
0 0 0 0 0 0 0 0 0 0 0 0 0 0 0 0 0 0 0 0 0 0 0 0 0 0 0 0 0 0 0 0 0 0 0 0 0 0 0 0 0 0 0 0
0 0 0 0 0 0 0 0 0 0 0 0 0 0 0 0 0 0 0 0 0 0 0 0 0 0 0 0 0 0 0 0 0 0 0 0 0 0 0 0 0 0 0 0
0 0 0 0 0 0 0 0 0 0 0 0 0 0 0 0 0 0 0 0 0 0 0 0 0 0 0 0 0 0 0 0 0 0 0 0 0 0 0 0 0 0 0 0
0 0 0 0 0 0 0 0 0 0 0 0 0 0 0 0 0 0 0 0 0 0 0 0 0 0 0 0 0 0 0 0 0 0 0 0 0 0 0 0 0 0 0 0
0 0 0 0 0 0 0 0 0 0 0 0 0 0 0 0 0 0 0 0 0 0 0 0 0 0 0 0 0 0 0 0 0 0 0 0 0 0 0 0 0 0 0 0
0 0 0 0 0 0 0 0 0 0 0 0 0 0 0 0 0 0 0 0 0 0 0 0 0 0 0 0 0 0 0 0 0 0 0 0 0 0 0 0 0 0 0 0
0 0 0 0 0 0 0 0 0 0 0 0 0 0 0 0 0 0 0 0 0 0 0 0 0 0 0 0 0 0 0 0 0 0 0 0 0 0 0 0 0 0 0 0
0 0 0 0 0 0 0 0 0 0 0 0 0 0 0 0 0 0 0 0 0 0 0 0 0 0 0 0 0 0 0 0 0 0 0 0 0 0 0 0 0 0 0 0
0 0 0 0 0 0 0 0 0 0 0 0 0 0 0 0 0 0 0 0 0 0 0 0 0 0 0 0 0 0 0 0 0 0 0 0 0 0 0 0 0 0 0 0
0 0 0 0 0 0 0 0 0 0 0 0 0 0 0 0 0 0 0 0 0 0 0 0 0 0 0 0 0 0 0 0 0 0 0 0 0 0 0 0 0 0 0 0
0 0 0 0 0 0 0 0 0 0 0 0 0 0 0 0 0 0 0 0 0 0 0 0 0 0 0 0 0 0 0 0 0 0 0 0 0 0 0 0 0 0 0 0
0 0 0 0 0 0 0 0 0 0 0 0 0 0 0 0 0 0 0 0 0 0 0 0 0 0 0 0 0 0 0 0 0 0 0 0 0 0 0 0 0 0 0 0
0 0 0 0 0 0 0 0 0 0 0 0 0 0 0 0 0 0 0 0 0 0 0 0 0 0 0 0 0 0 0 0 0 0 0 0 0 0 0 0 0 0 0 0
0 0 0 0 0 0 0 0 0 0 0 0 0 0 0 0 0 0 0 0 0 0 0 0 0 0 0 0 0 0 0 0 0 0 0 0 0 0 0 0 0 0 0 0
Wind_Speed
5 3 4 5 8 9 11 11 10 10 10 11 8 6 5 5 4 3 3 3 3 3 3 3 3 3 3 4 4 4 4 5 6 6 6 6 7 7 7 7 8 8 8 9
4 5 5 6 8 11 12 11 11 10 12 9 6 4 4 5 4 4 5 4 4 3 3 3 4 4 4 4 5 4 5 6 6 6 6 6 7 7 7 7 8 7 8 8
3 2 2 9 11 12 8 8 9 13 12 5 5 6 7 7 5 5 5 4 3 4 4 4 4 4 4 5 5 5 5 6 6 6 6 7 8 7 7 7 7 8 8 8
1 1 8 8 4 8 10 9 9 7 6 6 8 7 6 5 4 4 3 3 3 3 4 4 4 4 4 4 4 5 6 6 6 6 7 7 7 8 8 7 7 8 8 8
3 4 8 7 3 5 6 8 6 8 7 6 4 2 4 3 2 3 3 4 4 4 4 4 4 4 4 5 5 5 6 6 6 6 7 7 7 8 8 8 8 8 8 8
4 4 8 6 3 2 3 5 3 3 5 4 0 2 6 3 2 3 3 2 2 2 3 3 4 4 4 5 5 6 7 7 6 6 6 8 8 8 7 7 8 8 8 8
6 6 9 6 3 2 3 5 3 2 2 1 3 6 4 3 3 2 2 2 2 2 3 4 4 4 5 6 6 7 7 7 7 6 7 8 7 7 7 7 7 7 9 8
5 6 9 2 2 3 4 1 1 2 2 2 3 4 3 4 3 3 3 3 3 3 4 4 4 4 5 7 7 7 6 6 7 7 7 7 7 7 7 6 7 7 7 8
7 7 3 1 2 2 1 1 2 2 3 2 3 4 4 4 4 4 3 3 3 3 4 4 4 4 6 7 7 7 7 7 7 7 6 6 6 7 6 5 5 6 6 7
4 5 4 3 2 1 1 2 2 2 2 2 4 4 5 5 5 4 4 4 4 4 5 6 5 5 6 7 6 6 7 7 7 7 7 6 5 5 5 5 5 6 6 6
5 5 3 2 2 2 2 2 2 2 2 3 4 4 4 4 5 5 5 5 4 4 6 6 6 6 6 6 6 6 7 7 7 6 6 6 6 5 6 5 6 8 6 5
6 5 4 5 3 2 2 3 2 2 3 3 3 4 4 4 4 4 5 5 5 5 5 6 6 7 7 6 5 6 6 6 5 5 5 5 6 7 9 9 13 14 11 8
5 4 4 4 3 1 1 2 3 3 3 4 4 4 4 4 5 5 5 5 6 6 6 6 6 7 6 6 6 6 6 6 5 5 5 5 5 6 7 9 11 10 9 9
2 1 2 2 3 3 2 3 3 3 3 3 3 4 4 4 5 5 6 6 6 6 6 6 6 7 7 6 6 6 6 7 7 5 5 5 5 5 5 6 7 6 7 9
2 2 3 3 2 3 3 3 3 4 4 4 4 4 5 5 6 7 7 7 6 6 6 6 6 7 6 5 6 6 5 5 5 4 4 4 4 4 4 5 5 5 5 6
4 2 1 1 2 3 3 3 3 4 5 5 5 5 6 6 6 7 6 5 5 7 7 6 7 7 6 5 6 5 5 9 8 5 4 4 4 4 4 4 5 5 4 4
1 2 2 3 3 4 3 3 3 4 5 5 6 6 6 6 6 6 6 5 5 6 6 6 7 7 6 6 5 4 4 5 8 5 4 4 4 4 4 4 4 4 4 5
2 2 2 3 3 4 4 4 4 5 5 6 6 6 5 5 6 7 7 6 6 6 6 6 6 6 6 5 5 4 3 4 4 3 4 3 4 3 3 4 4 4 4 4
2 2 2 2 2 3 4 5 5 5 5 5 5 5 5 5 6 6 6 6 6 7 7 6 9 7 6 6 6 3 4 4 4 3 3 5 5 3 3 3 4 4 3 4
3 2 2 3 3 3 4 5 5 5 5 5 5 5 6 6 5 5 6 6 5 5 6 7 7 5 5 6 7 3 3 4 3 3 3 3 3 3 3 3 3 3 3 3
3 3 3 4 4 4 4 4 4 5 6 5 5 6 6 7 6 5 5 6 6 6 7 9 6 5 4 5 6 3 3 3 3 3 3 3 3 3 3 3 3 3 3 2
4 3 4 4 4 5 5 4 4 5 6 6 6 6 6 6 6 6 5 5 6 9 7 5 4 6 7 7 3 3 3 3 3 3 3 3 3 3 3 3 3 2 2 2
4 4 4 4 4 5 6 5 5 5 5 6 6 6 6 6 5 5 6 5 5 9 7 5 7 10 10 5 3 3 3 3 2 3 3 3 3 3 3 3 2 2 2 2
4 4 4 4 4 4 6 6 6 5 5 6 6 6 6 5 5 4 5 9 11 11 6 7 11 10 9 3 2 2 2 2 2 2 3 3 2 3 2 2 2 2 2 2
4 4 4 4 4 4 5 6 6 5 5 4 5 5 4 4 5 5 5 6 9 10 6 7 10 10 5 3 2 2 2 2 2 2 2 2 2 2 2 2 2 2 2 2
4 4 4 4 4 4 4 4 4 5 5 5 5 4 4 4 5 5 5 5 6 8 6 4 5 5 3 3 3 2 2 3 3 3 2 2 3 2 2 2 2 2 2 2
4 3 3 3 4 4 4 4 4 5 5 5 6 5 5 5 5 5 5 5 4 4 4 4 3 3 3 3 3 2 2 2 2 2 2 2 2 2 2 2 2 1 1 1
Wind_Direction
236 229 191 211 216 207 210 210 215 233 236 254 256 252 253 257 262 263 268 268 257 260 266 275 283 286 287 290 293 294 295 291 283 281 282 282 284 281 278 273 274 273 271 272
246 230 222 243 235 221 226 226 235 252 260 260 263 270 275 272 265 255 261 262 259 263 269 276 279 285 291 290 290 294 293 289 288 288 288 287 287 288 284 282 278 278 275 274
249 273 276 249 224 213 214 212 208 234 247 257 271 266 260 257 249 244 258 264 269 271 265 267 273 275 279 280 290 295 293 294 294 295 295 294 295 296 289 283 280 279 278 275
201 135 234 245 216 208 222 231 219 233 246 241 244 255 263 247 228 244 255 265 268 266 273 278 279 284 285 291 295 295 295 296 296 296 296 299 299 296 292 288 284 280 279 279
183 230 268 282 247 189 205 243 225 234 254 263 260 290 287 265 221 237 251 257 255 260 271 284 293 299 305 302 297 295 294 294 293 293 295 296 295 294 294 294 288 283 283 281
189 214 239 251 256 213 136 260 275 240 255 265 286 272 269 277 284 273 268 266 279 295 306 307 304 310 308 299 297 291 290 290 289 288 288 289 287 290 292 291 289 292 288 282
210 230 257 260 269 108 177 243 289 278 265 249 224 234 260 292 294 277 280 287 298 310 305 295 300 309 301 297 290 289 293 294 293 292 288 286 287 290 293 294 296 293 290 288
189 216 250 267 119 172 220 247 289 294 278 268 263 267 276 285 284 290 300 300 303 302 295 294 297 300 296 292 291 297 299 299 296 294 294 298 295 295 295 294 296 295 295 295
197 219 244 211 202 236 196 222 251 258 275 270 280 279 281 283 284 281 280 286 292 291 296 298 295 289 289 291 297 302 304 301 300 300 296 295 294 297 301 297 293 294 294 293
239 261 273 276 279 286 240 236 250 256 275 277 274 277 282 286 289 290 287 288 293 297 297 300 301 294 285 292 298 301 303 305 306 307 305 302 298 295 297 298 296 293 294 294
246 269 290 284 262 258 280 282 283 290 283 272 271 278 278 284 288 289 294 292 289 287 288 293 299 298 299 298 303 305 304 305 308 305 304 304 300 293 292 283 286 291 287 280
240 246 235 260 264 254 265 277 279 296 308 304 283 279 285 284 283 284 289 292 293 291 290 293 296 298 301 300 301 303 305 307 306 306 305 305 306 308 299 294 301 297 293 291
238 260 252 263 272 286 271 284 289 285 284 293 296 290 289 289 292 293 293 293 292 291 290 292 295 296 299 302 303 300 298 301 302 304 305 307 309 312 316 320 318 317 321 323
249 270 275 279 287 303 300 304 313 312 304 299 299 301 298 296 299 299 295 292 292 292 292 293 294 295 298 301 301 299 297 299 302 299 299 301 305 307 309 313 321 327 332 334
324 296 257 279 297 312 318 327 331 322 319 317 312 307 303 301 298 297 296 297 300 298 295 295 296 298 304 305 304 301 299 297 298 296 296 300 304 308 310 312 312 316 325 335
311 322 337 322 315 321 327 324 312 306 309 311 311 307 301 295 293 295 298 298 297 297 298 298 296 300 304 305 304 302 299 304 308 305 307 311 311 314 315 315 314 317 324 330
341 325 325 316 315 317 316 309 295 294 299 301 302 305 308 306 304 302 304 304 296 292 293 292 295 300 302 302 300 298 302 308 315 313 313 314 315 316 315 314 318 321 325 331
255 257 264 267 285 306 315 317 312 306 301 298 303 306 306 301 297 299 305 310 310 306 301 297 298 303 304 305 304 300 302 303 307 308 311 315 314 312 313 313 317 319 327 336
344 337 330 317 306 301 303 307 308 308 308 308 305 301 295 292 292 297 303 308 308 307 309 309 311 313 310 308 312 299 300 304 307 307 306 311 315 320 320 318 320 325 328 335
348 343 334 323 321 310 304 306 309 310 309 306 304 304 303 302 301 302 304 299 291 289 298 304 308 306 305 305 310 301 298 299 303 305 308 307 311 315 315 314 318 322 329 336
336 332 329 323 317 314 306 304 307 308 310 311 305 300 299 301 302 301 302 301 303 304 305 307 310 306 306 308 311 304 299 299 303 304 309 310 309 308 309 311 315 319 327 333
321 319 317 316 317 317 317 315 307 305 308 310 307 303 303 305 306 302 288 281 295 308 311 303 302 308 313 313 306 303 300 299 300 302 303 304 302 302 305 309 312 317 324 329
312 312 313 312 309 307 311 312 310 308 307 306 305 304 300 296 297 298 301 302 304 310 312 300 306 312 314 315 311 304 301 301 302 302 300 299 301 302 305 309 313 318 323 328
315 318 315 312 312 314 316 316 315 311 304 300 298 297 295 298 297 287 285 302 311 311 307 309 315 317 317 314 308 303 301 301 299 298 302 304 307 310 311 313 320 327 330 330
317 316 319 324 323 314 309 312 315 315 312 308 307 306 300 291 291 298 298 299 307 315 314 316 320 321 323 320 312 303 298 292 292 294 295 299 305 308 313 318 319 320 326 326
317 314 308 303 298 300 305 310 312 312 315 316 316 317 313 307 301 300 302 305 309 316 316 312 314 318 320 315 310 305 299 299 301 299 296 295 298 299 304 311 313 312 314 320
318 316 317 319 318 315 313 311 310 311 313 311 310 312 313 312 311 310 309 311 314 315 313 311 311 312 311 307 305 300 294 292 291 290 292 294 295 291 293 295 298 303 308 319